Simultaneous Nadir Overpasses (SNOs) Predictions

Prediction of SNOs between FY3D and NOAA-19 Satellite Orbit:

Table of predicted SNOs for the next 14.0 days since TLE Epoch: 10/19/2019
Index Date (FY3D) Time (FY3D) Lat,Lon (FY3D) SZA (FY3D ) Date (NOAA-19) Time (NOAA-19) Lat,Lon (NOAA-19) SZA (NOAA-19 ) Distance(km) Time Diff (sec)
1 10/26/2019 08:23:01 79.84, 18.09 93.70 10/26/2019 08:21:48 79.87, 17.98 93.76 3.47 73
2 10/26/2019 09:13:46 -79.85,-174.66 86.29 10/26/2019 09:12:54 -79.87,-174.73 86.24 3.02 52
3 10/26/2019 10:04:30 79.87, -7.54 93.77 10/26/2019 10:03:48 79.86, -7.60 93.78 1.56 42
4 10/26/2019 10:55:15 -79.87, 159.72 86.22 10/26/2019 10:54:54 -79.86, 159.69 86.21 1.19 21
5 10/26/2019 11:45:59 79.86, -32.87 93.78 10/26/2019 11:45:48 79.88, -32.87 93.80 1.56 11
6 10/26/2019 12:36:44 -79.87, 134.39 86.20 10/26/2019 12:36:54 -79.88, 134.42 86.20 1.58 10
7 10/26/2019 13:27:29 79.89, -58.49 93.85 10/26/2019 13:27:49 79.87, -58.45 93.82 2.25 20
8 10/26/2019 14:18:14 -79.90, 108.76 86.13 10/26/2019 14:18:55 -79.88, 108.84 86.17 2.56 41
9 10/26/2019 15:08:58 79.89, -83.83 93.87 10/26/2019 15:09:49 79.89, -83.73 93.84 1.98 51
10 10/26/2019 15:59:43 -79.89, 83.43 86.11 10/26/2019 16:00:55 -79.90, 83.56 86.15 2.60 72




NCC Satellite Simultaneous Nadir Overpasses (SNOs) Prediction Service
